| time (UTC) | temp C | wind direction | speed KPH | gust KPH | rain 1hr cm | rain 24hr cm | rain mn cm | humidity % | barometer mb |
| 20260503000336 | 9 | 56 | 1.6 | 1.6 | 0.00 | 0.20 | 0.20 | 93 | 1010.0 |
| 20260502235833 | 9 | 60 | 0.0 | 1.6 | 0.00 | 0.20 | 0.20 | 93 | 1010.2 |
| 20260502235330 | 9 | 29 | 0.0 | 1.6 | 0.00 | 0.20 | 0.20 | 93 | 1010.1 |
| 20260502234826 | 9 | 51 | 0.0 | 3.2 | 0.00 | 0.20 | 0.20 | 93 | 1010.1 |
| 20260502234323 | 9 | 66 | 3.2 | 3.2 | 0.00 | 0.20 | 0.20 | 93 | 1010.0 |
| 20260502233820 | 9 | 63 | 1.6 | 1.6 | 0.00 | 0.20 | 0.20 | 93 | 1010.3 |
| 20260502233316 | 10 | 89 | 0.0 | 1.6 | 0.00 | 0.20 | 0.20 | 93 | 1010.3 |
| 20260502232814 | 9 | 147 | 0.0 | 3.2 | 0.00 | 0.20 | 0.20 | 93 | 1009.9 |
| 20260502232310 | 9 | 60 | 0.0 | 1.6 | 0.00 | 0.20 | 0.20 | 92 | 1010.1 |
| 20260502231806 | 9 | 48 | 3.2 | 3.2 | 0.00 | 0.20 | 0.20 | 92 | 1010.1 |
| 20260502231304 | 10 | 55 | 0.0 | 0.0 | 0.00 | 0.20 | 0.20 | 92 | 1010.1 |
| 20260502230802 | 9 | 65 | 1.6 | 1.6 | 0.00 | 0.20 | 0.20 | 92 | 1010.3 |
| 20260502230300 | 9 | 124 | 0.0 | 1.6 | 0.00 | 0.20 | 0.20 | 92 | 1010.1 |
| 20260502225756 | 10 | 138 | 1.6 | 3.2 | 0.00 | 0.20 | 0.20 | 92 | 1010.3 |
| 20260502225253 | 9 | 39 | 0.0 | 3.2 | 0.00 | 0.20 | 0.20 | 92 | 1010.2 |
| 20260502224749 | 9 | 89 | 0.0 | 0.0 | 0.00 | 0.20 | 0.20 | 92 | 1010.0 |
| 20260502224246 | 9 | 116 | 1.6 | 3.2 | 0.00 | 0.20 | 0.20 | 91 | 1010.0 |
| 20260502223744 | 9 | 126 | 0.0 | 0.0 | 0.00 | 0.20 | 0.20 | 91 | 1009.9 |
| 20260502223242 | 9 | 131 | 3.2 | 6.4 | 0.00 | 0.20 | 0.20 | 91 | 1009.8 |
| 20260502222739 | 9 | 123 | 6.4 | 8.0 | 0.00 | 0.20 | 0.20 | 91 | 1010.0 |
| 20260502222236 | 9 | 133 | 6.4 | 6.4 | 0.00 | 0.20 | 0.20 | 91 | 1010.0 |
| 20260502221731 | 9 | 141 | 0.0 | 4.8 | 0.00 | 0.20 | 0.20 | 90 | 1010.2 |
| 20260502221228 | 9 | 122 | 0.0 | 3.2 | 0.13 | 0.20 | 0.20 | 90 | 1010.1 |
| 20260502220725 | 9 | 84 | 3.2 | 4.8 | 0.18 | 0.20 | 0.20 | 90 | 1010.0 |
| 20260502220221 | 9 | 95 | 3.2 | 3.2 | 0.13 | 0.18 | 0.18 | 89 | 1010.2 |
| 20260502215718 | 9 | 345 | 0.0 | 0.0 | 0.13 | 0.18 | 0.18 | 89 | 1010.3 |
| 20260502215215 | 10 | 345 | 0.0 | 1.6 | 0.18 | 0.18 | 0.18 | 88 | 1010.4 |
| 20260502214713 | 10 | 312 | 0.0 | 0.0 | 0.13 | 0.15 | 0.15 | 87 | 1010.3 |
| 20260502214210 | 10 | 54 | 0.0 | 1.6 | 0.13 | 0.15 | 0.15 | 86 | 1010.2 |
| 20260502213707 | 10 | 34 | 0.0 | 1.6 | 0.13 | 0.13 | 0.13 | 85 | 1010.2 |
| 20260502213204 | 10 | 66 | 0.0 | 1.6 | 0.13 | 0.13 | 0.13 | 83 | 1010.2 |
| 20260502212702 | 10 | 309 | 1.6 | 3.2 | 0.05 | 0.10 | 0.10 | 82 | 1010.1 |
| 20260502212200 | 10 | 343 | 3.2 | 3.2 | 0.00 | 0.10 | 0.10 | 80 | 1010.1 |
| 20260502211656 | 10 | 312 | 3.2 | 3.2 | 0.00 | 0.10 | 0.10 | 78 | 1010.1 |
| 20260502211153 | 11 | 280 | 3.2 | 8.0 | 0.00 | 0.10 | 0.10 | 75 | 1010.3 |
| 20260502210650 | 11 | 331 | 3.2 | 6.4 | 0.00 | 0.10 | 0.10 | 73 | 1010.1 |
| 20260502210147 | 12 | 274 | 6.4 | 8.0 | 0.00 | 0.10 | 0.10 | 69 | 1010.1 |
| 20260502205644 | 12 | 228 | 0.0 | 4.8 | 0.00 | 0.10 | 0.10 | 68 | 1009.9 |
| 20260502205141 | 12 | 228 | 6.4 | 9.7 | 0.00 | 0.10 | 0.10 | 67 | 1009.8 |
| 20260502204638 | 12 | 183 | 3.2 | 12.9 | 0.00 | 0.10 | 0.10 | 69 | 1009.9 |
| 20260502204135 | 12 | 174 | 3.2 | 20.9 | 0.00 | 0.10 | 0.10 | 68 | 1009.7 |
| 20260502203632 | 12 | 215 | 8.0 | 9.7 | 0.00 | 0.10 | 0.10 | 67 | 1009.9 |
| 20260502203131 | 12 | 182 | 4.8 | 8.0 | 0.00 | 0.10 | 0.10 | 66 | 1009.8 |
| 20260502202631 | 12 | 179 | 4.8 | 20.9 | 0.00 | 0.10 | 0.10 | 65 | 1009.9 |
| 20260502202129 | 12 | 199 | 8.0 | 9.7 | 0.00 | 0.10 | 0.10 | 64 | 1009.8 |
| 20260502201625 | 12 | 188 | 4.8 | 14.5 | 0.00 | 0.10 | 0.10 | 64 | 1009.9 |
| 20260502201122 | 12 | 152 | 6.4 | 20.9 | 0.00 | 0.10 | 0.10 | 63 | 1009.8 |
| 20260502200618 | 12 | 181 | 9.7 | 12.9 | 0.00 | 0.10 | 0.10 | 61 | 1009.9 |
| 20260502200115 | 13 | 187 | 6.4 | 14.5 | 0.00 | 0.10 | 0.10 | 60 | 1009.9 |
| 20260502195614 | 12 | 79 | 3.2 | 12.9 | 0.00 | 0.10 | 0.10 | 61 | 1009.9 |
| 20260502195109 | 12 | 166 | 3.2 | 6.4 | 0.00 | 0.10 | 0.10 | 63 | 1009.9 |
| 20260502194606 | 12 | 159 | 8.0 | 11.3 | 0.00 | 0.10 | 0.10 | 62 | 1010.0 |
| 20260502194102 | 12 | 157 | 4.8 | 11.3 | 0.00 | 0.10 | 0.10 | 60 | 1010.2 |
| 20260502193600 | 12 | 173 | 3.2 | 8.0 | 0.00 | 0.10 | 0.10 | 61 | 1010.1 |
| 20260502193056 | 12 | 146 | 6.4 | 9.7 | 0.00 | 0.10 | 0.10 | 62 | 1010.4 |
| 20260502192552 | 12 | 193 | 8.0 | 25.7 | 0.00 | 0.10 | 0.10 | 60 | 1010.5 |
| 20260502192050 | 12 | 168 | 6.4 | 9.7 | 0.00 | 0.10 | 0.10 | 59 | 1010.4 |
| 20260502191546 | 13 | 185 | 8.0 | 16.1 | 0.00 | 0.10 | 0.10 | 59 | 1010.6 |
| 20260502191044 | 12 | 232 | 3.2 | 14.5 | 0.00 | 0.10 | 0.10 | 61 | 1010.8 |
| 20260502190542 | 12 | 184 | 6.4 | 9.7 | 0.00 | 0.10 | 0.10 | 59 | 1010.8 |
| 20260502190038 | 12 | 157 | 3.2 | 16.1 | 0.00 | 0.10 | 0.10 | 58 | 1010.8 |
| 20260502185533 | 12 | 227 | 6.4 | 6.4 | 0.00 | 0.10 | 0.10 | 60 | 1010.6 |
| 20260502185030 | 11 | 147 | 4.8 | 22.5 | 0.00 | 0.10 | 0.10 | 60 | 1010.7 |
| 20260502184526 | 12 | 177 | 6.4 | 12.9 | 0.00 | 0.10 | 0.10 | 62 | 1010.7 |
| 20260502184022 | 11 | 105 | 3.2 | 6.4 | 0.00 | 0.10 | 0.10 | 66 | 1010.8 |
| 20260502183519 | 11 | 152 | 8.0 | 16.1 | 0.00 | 0.10 | 0.10 | 63 | 1010.8 |
| 20260502183015 | 11 | 151 | 19.3 | 22.5 | 0.00 | 0.10 | 0.10 | 65 | 1010.9 |
| 20260502182509 | 11 | 134 | 3.2 | 11.3 | 0.00 | 0.10 | 0.10 | 70 | 1010.8 |
| 20260502182006 | 11 | 166 | 4.8 | 6.4 | 0.00 | 0.10 | 0.10 | 75 | 1010.9 |
| 20260502181504 | 10 | 204 | 8.0 | 9.7 | 0.00 | 0.10 | 0.10 | 74 | 1011.0 |
| 20260502181002 | 10 | 178 | 4.8 | 8.0 | 0.00 | 0.10 | 0.10 | 76 | 1011.0 |
| 20260502180459 | 10 | 166 | 6.4 | 12.9 | 0.00 | 0.10 | 0.10 | 76 | 1010.9 |
| 20260502170418 | 11 | 295 | 0.0 | 1.6 | 0.13 | 0.05 | 0.05 | 79 | 1011.3 |
| 20260502163901 | 11 | 102 | 0.0 | 3.2 | 0.00 | 0.03 | 0.03 | 67 | 1011.3 |
| 20260502163358 | 11 | 225 | 3.2 | 4.8 | 0.00 | 0.03 | 0.03 | 64 | 1011.3 |
| 20260502162856 | 11 | 268 | 4.8 | 4.8 | 0.00 | 0.03 | 0.03 | 63 | 1011.2 |
| 20260502162352 | 12 | 217 | 3.2 | 4.8 | 0.00 | 0.03 | 0.03 | 61 | 1011.5 |
| 20260502161849 | 12 | 190 | 3.2 | 6.4 | 0.00 | 0.03 | 0.03 | 61 | 1011.1 |
| 20260502161345 | 12 | 268 | 4.8 | 6.4 | 0.00 | 0.03 | 0.03 | 60 | 1011.4 |
| 20260502160843 | 12 | 222 | 3.2 | 3.2 | 0.00 | 0.03 | 0.03 | 62 | 1011.3 |
| 20260502160341 | 12 | 83 | 3.2 | 4.8 | 0.00 | 0.03 | 0.03 | 64 | 1011.3 |
| 20260502152311 | 12 | 263 | 1.6 | 3.2 | 0.00 | 0.03 | 0.03 | 72 | 1011.5 |
| 20260502151808 | 12 | 138 | 3.2 | 6.4 | 0.00 | 0.03 | 0.03 | 72 | 1011.5 |
| 20260502151305 | 11 | 181 | 1.6 | 11.3 | 0.00 | 0.03 | 0.03 | 71 | 1011.7 |
| 20260502150803 | 11 | 139 | 3.2 | 6.4 | 0.00 | 0.03 | 0.03 | 73 | 1011.8 |
| 20260502150259 | 12 | 69 | 4.8 | 8.0 | 0.00 | 0.03 | 0.03 | 73 | 1012.0 |
| 20260502130647 | 9 | 170 | 3.2 | 3.2 | 0.00 | 0.03 | 0.03 | 86 | 1012.5 |
| 20260502130145 | 9 | 105 | 0.0 | 0.0 | 0.00 | 0.03 | 0.03 | 86 | 1012.6 |
| 20260502123630 | 10 | 295 | 3.2 | 4.8 | 0.00 | 0.00 | 0.00 | 78 | 1012.7 |
| 20260502123127 | 10 | 349 | 1.6 | 3.2 | 0.00 | 0.00 | 0.00 | 78 | 1012.7 |
| 20260502122623 | 10 | 306 | 4.8 | 6.4 | 0.00 | 0.00 | 0.00 | 78 | 1012.9 |
| 20260502122120 | 10 | 212 | 6.4 | 8.0 | 0.00 | 0.00 | 0.00 | 77 | 1012.6 |
| 20260502121619 | 10 | 210 | 3.2 | 4.8 | 0.00 | 0.00 | 0.00 | 77 | 1012.6 |
| 20260502121115 | 10 | 281 | 4.8 | 6.4 | 0.00 | 0.00 | 0.00 | 77 | 1012.6 |
| 20260502120612 | 10 | 260 | 4.8 | 4.8 | 0.00 | 0.00 | 0.00 | 77 | 1012.5 |
| 20260502120109 | 10 | 277 | 3.2 | 3.2 | 0.00 | 0.00 | 0.00 | 77 | 1012.2 |
| 20260502115607 | 10 | 58 | 1.6 | 4.8 | 0.00 | 0.00 | 0.00 | 77 | 1012.1 |
| 20260502115102 | 10 | 265 | 1.6 | 3.2 | 0.00 | 0.00 | 0.00 | 77 | 1012.3 |
| 20260502114559 | 10 | 220 | 1.6 | 3.2 | 0.00 | 0.00 | 0.00 | 76 | 1012.1 |
| 20260502114056 | 10 | 283 | 0.0 | 3.2 | 0.00 | 0.00 | 0.00 | 75 | 1011.8 |
| 20260502113553 | 11 | 135 | 6.4 | 6.4 | 0.00 | 0.00 | 0.00 | 73 | 1011.8 |
| 20260502113052 | 10 | 117 | 1.6 | 3.2 | 0.00 | 0.00 | 0.00 | 78 | 1011.6 |
| 20260502112549 | 9 | 84 | 0.0 | 3.2 | 0.00 | 0.00 | 0.00 | 80 | 1011.6 |
| 20260502112047 | 9 | 158 | 3.2 | 3.2 | 0.00 | 0.00 | 0.00 | 79 | 1011.6 |
| 20260502111544 | 8 | 78 | 0.0 | 1.6 | 0.00 | 0.00 | 0.00 | 80 | 1011.7 |
| 20260502111041 | 8 | 126 | 0.0 | 3.2 | 0.00 | 0.00 | 0.00 | 80 | 1011.6 |
| 20260502110538 | 8 | 119 | 0.0 | 3.2 | 0.00 | 0.00 | 0.00 | 80 | 1011.9 |
| 20260502110036 | 8 | 224 | 0.0 | 0.0 | 0.00 | 0.00 | 0.00 | 80 | 1011.8 |
| 20260502105533 | 8 | 124 | 0.0 | 1.6 | 0.00 | 0.00 | 0.00 | 80 | 1011.8 |
| 20260502105031 | 8 | 96 | 1.6 | 1.6 | 0.00 | 0.00 | 0.00 | 81 | 1011.8 |
| 20260502104527 | 8 | 135 | 3.2 | 3.2 | 0.00 | 0.00 | 0.00 | 82 | 1011.6 |
| 20260502104025 | 8 | 67 | 0.0 | 3.2 | 0.00 | 0.00 | 0.00 | 83 | 1011.6 |
| 20260502103523 | 8 | 280 | 0.0 | 1.6 | 0.00 | 0.00 | 0.00 | 82 | 1012.0 |
| 20260502103021 | 8 | 119 | 3.2 | 4.8 | 0.00 | 0.00 | 0.00 | 82 | 1011.5 |
| 20260502102517 | 8 | 142 | 0.0 | 3.2 | 0.00 | 0.00 | 0.00 | 83 | 1011.7 |
| 20260502102014 | 8 | 119 | 1.6 | 3.2 | 0.00 | 0.00 | 0.00 | 85 | 1011.5 |
| 20260502101512 | 8 | 147 | 0.0 | 0.0 | 0.00 | 0.00 | 0.00 | 87 | 1011.8 |
| 20260502101010 | 8 | 175 | 0.0 | 0.0 | 0.00 | 0.00 | 0.00 | 85 | 1011.3 |
| 20260502100508 | 8 | 122 | 3.2 | 3.2 | 0.00 | 0.00 | 0.00 | 85 | 1011.0 |
| 20260502091443 | 7 | 129 | 1.6 | 3.2 | 0.00 | 0.00 | 0.00 | 87 | 1011.2 |
| 20260502090940 | 7 | 62 | 3.2 | 3.2 | 0.00 | 0.00 | 0.00 | 87 | 1011.3 |
| 20260502090437 | 7 | 129 | 3.2 | 3.2 | 0.00 | 0.00 | 0.00 | 87 | 1011.3 |
| 20260502071331 | 8 | 55 | 0.0 | 3.2 | 0.00 | 0.00 | 0.00 | 74 | 1011.3 |
| 20260502070829 | 8 | 46 | 3.2 | 4.8 | 0.00 | 0.00 | 0.00 | 74 | 1011.3 |
| 20260502070327 | 8 | 57 | 3.2 | 3.2 | 0.00 | 0.00 | 0.00 | 72 | 1011.4 |
| 20260502065826 | 9 | 77 | 3.2 | 3.2 | 0.00 | 0.00 | 0.00 | 71 | 1011.2 |
| 20260502065323 | 9 | 61 | 3.2 | 3.2 | 0.00 | 0.00 | 0.00 | 71 | 1011.2 |
| 20260502064821 | 9 | 26 | 0.0 | 4.8 | 0.00 | 0.00 | 0.00 | 71 | 1011.3 |
| 20260502064319 | 8 | 98 | 0.0 | 3.2 | 0.00 | 0.00 | 0.00 | 72 | 1011.2 |
| 20260502063816 | 8 | 160 | 0.0 | 3.2 | 0.00 | 0.00 | 0.00 | 73 | 1011.5 |
| 20260502063314 | 8 | 22 | 0.0 | 0.0 | 0.00 | 0.00 | 0.00 | 75 | 1011.7 |
| 20260502062810 | 8 | 339 | 0.0 | 3.2 | 0.00 | 0.00 | 0.00 | 75 | 1011.6 |
| 20260502062308 | 8 | 60 | 0.0 | 1.6 | 0.00 | 0.00 | 0.00 | 75 | 1011.6 |
| 20260502061807 | 7 | 89 | 0.0 | 3.2 | 0.00 | 0.00 | 0.00 | 75 | 1011.4 |
| 20260502061304 | 7 | 50 | 3.2 | 3.2 | 0.00 | 0.00 | 0.00 | 77 | 1011.4 |
| 20260502060759 | 7 | 70 | 1.6 | 3.2 | 0.00 | 0.00 | 0.00 | 77 | 1011.5 |
| 20260502060255 | 7 | 157 | 0.0 | 0.0 | 0.00 | 0.00 | 0.00 | 77 | 1011.5 |
| 20260502055753 | 7 | 49 | 1.6 | 3.2 | 0.00 | 0.00 | 0.00 | 76 | 1011.5 |
| 20260502055250 | 7 | 79 | 1.6 | 3.2 | 0.00 | 0.00 | 0.00 | 76 | 1011.4 |
| 20260502054749 | 7 | 69 | 0.0 | 0.0 | 0.00 | 0.00 | 0.00 | 76 | 1011.6 |
| 20260502054247 | 7 | 69 | 1.6 | 3.2 | 0.00 | 0.00 | 0.00 | 75 | 1011.5 |
| 20260502053744 | 7 | 72 | 1.6 | 1.6 | 0.00 | 0.00 | 0.00 | 74 | 1011.5 |
| 20260502053241 | 7 | 89 | 3.2 | 3.2 | 0.00 | 0.00 | 0.00 | 75 | 1011.6 |
| 20260502052739 | 7 | 82 | 3.2 | 3.2 | 0.00 | 0.00 | 0.00 | 75 | 1011.7 |
| 20260502052237 | 7 | 89 | 0.0 | 1.6 | 0.00 | 0.00 | 0.00 | 74 | 1011.6 |
| 20260502051735 | 7 | 97 | 1.6 | 3.2 | 0.00 | 0.00 | 0.00 | 74 | 1011.5 |
| 20260502051233 | 7 | 65 | 0.0 | 1.6 | 0.00 | 0.00 | 0.00 | 73 | 1011.7 |
| 20260502050728 | 7 | 74 | 0.0 | 3.2 | 0.00 | 0.00 | 0.00 | 72 | 1011.7 |
| 20260502050225 | 7 | 123 | 0.0 | 3.2 | 0.00 | 0.00 | 0.00 | 71 | 1011.8 |
| 20260502045722 | 7 | 91 | 3.2 | 3.2 | 0.00 | 0.00 | 0.00 | 70 | 1011.5 |
| 20260502045219 | 7 | 123 | 3.2 | 3.2 | 0.00 | 0.00 | 0.00 | 69 | 1011.6 |
| 20260502044716 | 8 | 113 | 1.6 | 3.2 | 0.00 | 0.00 | 0.00 | 70 | 1011.7 |
| 20260502044212 | 8 | 89 | 1.6 | 3.2 | 0.00 | 0.00 | 0.00 | 69 | 1011.5 |
| 20260502043710 | 8 | 118 | 3.2 | 3.2 | 0.00 | 0.00 | 0.00 | 68 | 1011.7 |
| 20260502043207 | 8 | 103 | 1.6 | 3.2 | 0.00 | 0.00 | 0.00 | 68 | 1011.7 |
| 20260502042706 | 8 | 95 | 1.6 | 1.6 | 0.00 | 0.00 | 0.00 | 68 | 1011.8 |
| 20260502042204 | 8 | 110 | 0.0 | 3.2 | 0.00 | 0.00 | 0.00 | 66 | 1011.7 |
| 20260502041701 | 8 | 103 | 0.0 | 3.2 | 0.00 | 0.00 | 0.00 | 65 | 1011.6 |
| 20260502041158 | 8 | 60 | 1.6 | 3.2 | 0.00 | 0.00 | 0.00 | 65 | 1011.7 |
| 20260502040655 | 8 | 112 | 1.6 | 3.2 | 0.00 | 0.00 | 0.00 | 63 | 1011.7 |
| 20260502040153 | 9 | 57 | 0.0 | 3.2 | 0.00 | 0.00 | 0.00 | 62 | 1011.7 |
| 20260502035649 | 9 | 109 | 1.6 | 1.6 | 0.00 | 0.00 | 0.00 | 62 | 1011.7 |
| 20260502035145 | 9 | 92 | 1.6 | 3.2 | 0.00 | 0.00 | 0.00 | 60 | 1011.8 |
| 20260502034643 | 9 | 70 | 3.2 | 3.2 | 0.00 | 0.00 | 0.00 | 61 | 1011.7 |
| 20260502034141 | 10 | 77 | 3.2 | 3.2 | 0.00 | 0.00 | 0.00 | 60 | 1011.7 |
| 20260502033639 | 10 | 65 | 0.0 | 3.2 | 0.00 | 0.00 | 0.00 | 59 | 1011.8 |
| 20260502033137 | 10 | 55 | 3.2 | 3.2 | 0.00 | 0.00 | 0.00 | 59 | 1011.6 |
| 20260502032632 | 9 | 48 | 1.6 | 3.2 | 0.00 | 0.00 | 0.00 | 59 | 1011.9 |
| 20260502032129 | 9 | 63 | 3.2 | 3.2 | 0.00 | 0.00 | 0.00 | 60 | 1011.9 |
| 20260502031627 | 8 | 84 | 1.6 | 3.2 | 0.00 | 0.00 | 0.00 | 60 | 1011.8 |
| 20260502031124 | 9 | 61 | 0.0 | 3.2 | 0.00 | 0.00 | 0.00 | 59 | 1011.6 |
| 20260502030623 | 9 | 66 | 1.6 | 3.2 | 0.00 | 0.00 | 0.00 | 59 | 1011.7 |
| 20260502030121 | 9 | 106 | 1.6 | 3.2 | 0.00 | 0.00 | 0.00 | 60 | 1011.9 |
| 20260502025618 | 9 | 70 | 3.2 | 3.2 | 0.00 | 0.00 | 0.00 | 59 | 1011.6 |
| 20260502025116 | 8 | 49 | 0.0 | 3.2 | 0.00 | 0.00 | 0.00 | 60 | 1011.6 |
| 20260502024614 | 8 | 49 | 3.2 | 3.2 | 0.00 | 0.00 | 0.00 | 59 | 1011.6 |
| 20260502024111 | 8 | 78 | 1.6 | 3.2 | 0.00 | 0.00 | 0.00 | 61 | 1011.5 |
| 20260502023609 | 8 | 86 | 3.2 | 3.2 | 0.00 | 0.00 | 0.00 | 63 | 1011.7 |
| 20260502023106 | 7 | 341 | 0.0 | 3.2 | 0.00 | 0.00 | 0.00 | 64 | 1011.7 |
| 20260502022603 | 7 | 77 | 3.2 | 3.2 | 0.00 | 0.00 | 0.00 | 66 | 1011.8 |
| 20260502022100 | 7 | 78 | 0.0 | 3.2 | 0.00 | 0.00 | 0.00 | 66 | 1011.7 |
| 20260502021557 | 7 | 52 | 3.2 | 4.8 | 0.00 | 0.00 | 0.00 | 72 | 1011.7 |
| 20260502021054 | 6 | 99 | 3.2 | 3.2 | 0.00 | 0.00 | 0.00 | 73 | 1011.9 |
| 20260502020552 | 6 | 63 | 1.6 | 3.2 | 0.00 | 0.00 | 0.00 | 73 | 1011.5 |
| 20260502020048 | 7 | 71 | 3.2 | 3.2 | 0.00 | 0.00 | 0.00 | 72 | 1011.6 |
| 20260502015546 | 7 | 230 | 0.0 | 1.6 | 0.00 | 0.00 | 0.00 | 71 | 1011.4 |
| 20260502015042 | 7 | 89 | 0.0 | 0.0 | 0.00 | 0.00 | 0.00 | 71 | 1011.4 |
| 20260502014539 | 7 | 113 | 0.0 | 0.0 | 0.00 | 0.00 | 0.00 | 69 | 1011.5 |
| 20260502014037 | 7 | 113 | 0.0 | 0.0 | 0.00 | 0.00 | 0.00 | 69 | 1011.1 |
| 20260502013532 | 7 | 89 | 0.0 | 0.0 | 0.00 | 0.00 | 0.00 | 68 | 1011.2 |
| 20260502013028 | 7 | 103 | 0.0 | 1.6 | 0.00 | 0.00 | 0.00 | 67 | 1011.4 |
| 20260502012526 | 7 | 84 | 1.6 | 1.6 | 0.00 | 0.00 | 0.00 | 65 | 1011.3 |
| 20260502012023 | 7 | 77 | 0.0 | 3.2 | 0.00 | 0.00 | 0.00 | 64 | 1011.4 |
| 20260502011520 | 8 | 103 | 0.0 | 1.6 | 0.00 | 0.00 | 0.00 | 61 | 1011.2 |
| 20260502011016 | 8 | 76 | 0.0 | 0.0 | 0.00 | 0.00 | 0.00 | 60 | 1011.2 |
| 20260502010514 | 8 | 76 | 0.0 | 0.0 | 0.00 | 0.00 | 0.00 | 59 | 1010.9 |
| 20260502010010 | 8 | 57 | 0.0 | 1.6 | 0.00 | 0.00 | 0.00 | 58 | 1011.0 |
| 20260502005508 | 8 | 69 | 0.0 | 0.0 | 0.00 | 0.00 | 0.00 | 58 | 1011.0 |
| 20260502005005 | 9 | 43 | 1.6 | 3.2 | 0.00 | 0.00 | 0.00 | 57 | 1010.9 |
| 20260502004500 | 9 | 44 | 0.0 | 1.6 | 0.00 | 0.00 | 0.00 | 56 | 1010.9 |
| 20260502003958 | 10 | 76 | 0.0 | 0.0 | 0.00 | 0.00 | 0.00 | 55 | 1010.8 |
| 20260502003455 | 10 | 61 | 1.6 | 3.2 | 0.00 | 0.00 | 0.00 | 56 | 1010.7 |
| 20260502002951 | 10 | 75 | 0.0 | 1.6 | 0.00 | 0.00 | 0.00 | 53 | 1010.7 |
| 20260502002449 | 10 | 79 | 0.0 | 1.6 | 0.00 | 0.00 | 0.00 | 51 | 1010.5 |
| 20260502001946 | 11 | 82 | 0.0 | 1.6 | 0.00 | 0.00 | 0.00 | 49 | 1010.5 |
| 20260502001443 | 11 | 49 | 0.0 | 1.6 | 0.00 | 0.00 | 0.00 | 49 | 1010.5 |
| 20260502000941 | 11 | 89 | 0.0 | 3.2 | 0.00 | 0.00 | 0.00 | 46 | 1010.3 |